Regional Weather Roundup
Issued by NWS

Home | Current Version | Previous Version | Text Only | Print | Product List | Glossary On
Versions: 1 2 3 4 5 6 7 8 9 10 11 12 13 14 15 16 17 18 19 20 21 22 23 24 25 26 27 28 29 30 31 32 33 34 35 36 37 38 39 40 41 42 43 44 45 46 47 48 49 50
000
ASUS43 KDTX 142210
RWRMI
MICHIGAN HOURLY REGIONAL WEATHER ROUNDUP
NATIONAL WEATHER SERVICE DETROIT/PONTIAC MI
500 PM EST SUN FEB 14 2016

NOTE: "FAIR" INDICATES FEW OR NO CLOUDS BELOW 12,000 FEET WITH NO
SIGNIFICANT WEATHER AND/OR OBSTRUCTION TO VISIBILITY.

MIZ047>049-052>055-059>063-066>070-074>076-081>083-142300-
SOUTHEAST LOWER MICHIGAN

CITY           SKY/WX    TMP DP  RH WIND       PRES   REMARKS
ADRIAN         CLOUDY    17   5  59 SE13      30.27F WCI   4
ALMA           CLOUDY    19   6  58 SE9       30.26F WCI   8
ANN ARBOR      CLOUDY    15   3  59 SE9       30.29F WCI   3
BAD AXE        CLEAR     14   2  59 S7        30.32F WCI   4
CARO           CLOUDY    16   3  57 SE9       30.30S WCI   4
DETROIT CITY   CLOUDY    16   2  54 SE10      30.35S WCI   4
DETROIT        CLOUDY    16   3  56 E8        30.34S WCI   5
FLINT          CLOUDY    17   3  54 SE10      30.31R WCI   5
GROSSE ILE     CLOUDY    18   3  53 SE8       30.32F WCI   7
HILLSDALE      CLOUDY    16   5  63 SE13      30.20F WCI   2
HOWELL         CLOUDY    15   5  63 SE9       30.26F WCI   4

CITY           SKY/WX    TMP DP  RH WIND       PRES   REMARKS
JACKSON        CLOUDY    16   3  56 SE15G21   30.23F WCI   1
LAMBERTVILLE   CLOUDY    18   6  58 SE7       30.30F WCI   9
LANSING        CLOUDY    17   5  59 SE12      30.25F WCI   4
LAPEER         FAIR      15   4  60 SE6       30.31S WCI   6
MASON          CLOUDY    17   6  63 E10       30.24F WCI   4
MONROE         CLOUDY    18   4  55 E10       30.31F WCI   6
MT. CLEMENS    MOCLDY    16   5  63 S10       30.33S WCI   3
PONTIAC        CLOUDY    15   1  53 S10       30.29R WCI   2
PORT HOPE        N/A     14   0  53 S9        30.32F WCI   2
PORT HURON     CLOUDY    14   3  62 SE6       30.34F WCI   5
TRI CITIES     CLOUDY    18   2  49 S7        30.30S WCI   9
MIDLAND        FAIR      17   0  48 SE12      30.29S WCI   4
TROY           CLOUDY    18   3  53 SE7       30.34R WCI   8
SAGINAW HB     CLOUDY    19   5  53 SE7       30.30S WCI  10
$$
MIZ043>046-050>051-056>058-064>065-071>073-077>080-142300-
SOUTHWEST LOWER MICHIGAN

CITY           SKY/WX    TMP DP  RH WIND       PRES   REMARKS
BATTLE CREEK   CLOUDY    18   4  54 SE12      30.21F WCI   5
BENTON HARBOR  LGT SNOW  18   8  65 E13G24    30.17F WCI   5
BIG RAPIDS     CLOUDY    17   1  48 SE8       30.19F WCI   7
COLDWATER      CLOUDY    18   6  58 SE9       30.21F WCI   7
FREMONT        FAIR      18   1  46 SE10      30.18F WCI   6
HOLLAND        CLOUDY    17   4  56 SE15      30.20F WCI   2
GRAND RAPIDS   CLOUDY    20   5  52 SE14      30.21F WCI   7
IONIA          FAIR      18   4  56 SE10      30.23F WCI   6
KALAMAZOO      CLOUDY    18   4  54 SE8G18    30.20F WCI   8
LUDINGTON      MOSUNNY   19   1  46 SE13      30.17F WCI   6
MARSHALL       CLOUDY    18   5  56 SE9       30.22F WCI   7
MOUNT PLEASANT MOSUNNY   19   2  46 SE9       30.26F WCI   9
MUSKEGON       CLOUDY    19   3  49 SE17      30.19F WCI   4
SOUTH HAVEN    CLOUDY    17   8  67 SE13G20   30.17F WCI   4
$$
MIZ016>042-142300-
NORTHERN LOWER MICHIGAN

CITY           SKY/WX    TMP DP  RH WIND       PRES   REMARKS
ALPENA         CLEAR     18   2  49 E8        30.27F WCI   8
BEAVER ISLAND  MOCLDY    19   8  61 SE8G18    30.21F WCI   9
BELLAIRE       CLEAR     20   3  48 SE13      30.22F WCI   7
CADILLAC       SUNNY     15   1  54 SE12      30.16S WCI   2
CHARLEVOIX     CLEAR     19   2  48 S6        30.25F WCI  11
FRANKFORT      SUNNY     22   1  40 SE10G16   30.19F WCI  11
GAYLORD        CLEAR     15  -1  49 S6        30.18F WCI   6
GRAYLING       CLEAR     16   0  49 SE10      30.20F WCI   3
HARBOR SPRINGS CLEAR     20   2  44 S6        30.22F WCI  13
HOUGHTON LAKE  CLEAR     16  -1  47 SE12      30.20F WCI   3
MANISTEE       SUNNY     21   0  39 SE7G17    30.19F WCI  13
OSCODA         CLEAR     15   0  52 S8        30.31S WCI   4
PELLSTON       CLEAR     18   1  47 SE8       30.23F WCI   8
ROGERS CITY    CLEAR     17   0  47 SE6       30.28F WCI   8
TRAVERSE CITY  MOSUNNY   20   2  45 SE9       30.20F WCI   9
$$
MIZ007>008-015-142300-
EASTERN UPPER MICHIGAN

CITY           SKY/WX    TMP DP  RH WIND       PRES   REMARKS
KINROSS        CLOUDY    18   9  68 SE10      30.24S WCI   6
MACKINAC ISLAN CLEAR     19   2  48 SE9       30.22F WCI   8
NEWBERRY       CLOUDY    18  10  73 S13G20    30.18F WCI   4
S. S. MARIE    CLOUDY    14   4  64 SE8       30.25F WCI   3
MUNISING         N/A     21  12  68 S16       30.13F WCI   7
$$
MIZ004>006-011>014-085-142300-
CENTRAL UPPER MICHIGAN

CITY           SKY/WX    TMP DP  RH WIND       PRES   REMARKS
MANISTIQUE     CLOUDY    22  11  64 S10       30.17F WCI  11
ESCANABA       CLOUDY    21  16  79 S14G21    30.14F WCI   8
MENOMINEE      CLOUDY    16  12  86 S6        30.14F WCI   7
SAWYER-GWINN   PTSUNNY   18  12  79 S18G25    30.06F WCI   2
$$
MIZ001>003-009>011-084-142300-
WESTERN UPPER MICHIGAN

CITY           SKY/WX    TMP DP  RH WIND       PRES   REMARKS
IRON MOUNTAIN  CLOUDY    19   9  65 S10G24    30.05F HAZE    WCI   7
HOUGHTON       SUNNY     20   0  41 SE13      29.99F WCI   7
COPPER HARBOR    N/A     21   4  47 SW8       30.04F WCI  11
IRONWOOD       CLOUDY    21   3  45 S6        29.93S WCI  14
$$

ABBREVIATIONS USED IN REMARKS
   TC - TEMPERATURE IN CELSIUS
  WCI - WIND CHILL INDEX
   HX - HEAT INDEX
  VSB - VISIBILITY




USA.gov is the U.S. government's official web portal to all federal, state and local government web resources and services.